Wetterdaten: Woche 23.01.23 - 29.01.23 (KW4)
Datum Zeit Temp. 2m rel. Feuchte Luftdruck Regen Wind Richtung Sonne ET UV-Index Solar Taupunkt Ben
23.01.2023 00:00 1,9 C 90 % 1033,5 hPa 0,0 mm 0,0 km/h (0 Bft) N 0,00 h 0,0 mm 0,0 UV-I 0 W/m 0,5 C 0,0 km/h (0 Bft)
23.01.2023 01:00 2,1 C 89 % 1033,8 hPa 0,0 mm 0,0 km/h (0 Bft) N 0,00 h 0,0 mm 0,0 UV-I 0 W/m 0,5 C 0,0 km/h (0 Bft)
23.01.2023 02:00 2,1 C 88 % 1033,9 hPa 0,0 mm 0,0 km/h (0 Bft) N 0,00 h 0,0 mm 0,0 UV-I 0 W/m 0,3 C 0,0 km/h (0 Bft)
23.01.2023 03:00 2,1 C 88 % 1034,1 hPa 0,0 mm 0,0 km/h (0 Bft) N 0,00 h 0,0 mm 0,0 UV-I 0 W/m 0,3 C 0,0 km/h (0 Bft)
23.01.2023 04:00 2,0 C 88 % 1034,0 hPa 0,0 mm 0,0 km/h (0 Bft) N 0,00 h 0,0 mm 0,0 UV-I 0 W/m 0,3 C 0,0 km/h (0 Bft)
23.01.2023 05:00 1,6 C 89 % 1034,3 hPa 0,0 mm 0,0 km/h (0 Bft) N 0,00 h 0,0 mm 0,0 UV-I 0 W/m -0,1 C 0,0 km/h (0 Bft)
23.01.2023 06:00 1,4 C 89 % 1034,3 hPa 0,0 mm 0,0 km/h (0 Bft) N 0,00 h 0,0 mm 0,0 UV-I 0 W/m -0,2 C 0,0 km/h (0 Bft)
23.01.2023 07:00 0,6 C 89 % 1034,7 hPa 0,0 mm 0,0 km/h (0 Bft) N 0,00 h 0,0 mm 0,0 UV-I 0 W/m -0,9 C 0,0 km/h (0 Bft)
23.01.2023 08:00 0,9 C 91 % 1035,4 hPa 0,0 mm 0,0 km/h (0 Bft) N 0,00 h 0,0 mm 0,0 UV-I 8 W/m -0,5 C 0,0 km/h (0 Bft)
23.01.2023 09:00 1,7 C 90 % 1035,7 hPa 0,0 mm 0,0 km/h (0 Bft) N 0,00 h 0,0 mm 0,0 UV-I 34 W/m 0,2 C 0,0 km/h (0 Bft)
23.01.2023 10:00 2,4 C 89 % 1036,0 hPa 0,0 mm 0,0 km/h (0 Bft) N 0,00 h 0,0 mm 0,0 UV-I 48 W/m 0,8 C 0,0 km/h (0 Bft)
23.01.2023 11:00 2,9 C 88 % 1036,1 hPa 0,0 mm 0,0 km/h (0 Bft) N 0,00 h 0,0 mm 0,1 UV-I 60 W/m 1,1 C 0,0 km/h (0 Bft)
23.01.2023 12:00 3,4 C 85 % 1036,0 hPa 0,0 mm 0,0 km/h (0 Bft) N 0,00 h 0,0 mm 0,1 UV-I 108 W/m 1,1 C 0,0 km/h (0 Bft)
23.01.2023 13:00 3,9 C 81 % 1035,7 hPa 0,0 mm 0,0 km/h (0 Bft) N 0,00 h 0,0 mm 0,0 UV-I 86 W/m 0,9 C 0,0 km/h (0 Bft)
23.01.2023 14:00 4,0 C 78 % 1035,8 hPa 0,0 mm 0,0 km/h (0 Bft) N 0,00 h 0,0 mm 0,0 UV-I 54 W/m 0,6 C 0,0 km/h (0 Bft)
23.01.2023 15:00 4,0 C 79 % 1035,9 hPa 0,0 mm 0,0 km/h (0 Bft) N 0,00 h 0,0 mm 0,0 UV-I 37 W/m 0,7 C 0,0 km/h (0 Bft)
23.01.2023 16:00 3,7 C 80 % 1036,2 hPa 0,0 mm 0,0 km/h (0 Bft) N 0,00 h 0,0 mm 0,0 UV-I 15 W/m 0,6 C 0,0 km/h (0 Bft)
23.01.2023 17:00 3,4 C 81 % 1036,1 hPa 0,0 mm 0,0 km/h (0 Bft) N 0,00 h 0,0 mm 0,0 UV-I 0 W/m 0,4 C 0,0 km/h (0 Bft)
23.01.2023 18:00 3,1 C 82 % 1036,3 hPa 0,0 mm 0,0 km/h (0 Bft) N 0,00 h 0,0 mm 0,0 UV-I 0 W/m 0,3 C 0,0 km/h (0 Bft)
23.01.2023 19:00 3,1 C 82 % 1036,1 hPa 0,0 mm 0,0 km/h (0 Bft) N 0,00 h 0,0 mm 0,0 UV-I 0 W/m 0,3 C 0,0 km/h (0 Bft)
23.01.2023 20:00 3,1 C 81 % 1036,3 hPa 0,0 mm 0,0 km/h (0 Bft) N 0,00 h 0,0 mm 0,0 UV-I 0 W/m 0,2 C 0,0 km/h (0 Bft)
23.01.2023 21:00 3,1 C 81 % 1036,9 hPa 0,0 mm 0,0 km/h (0 Bft) N 0,00 h 0,0 mm 0,0 UV-I 0 W/m 0,2 C 0,0 km/h (0 Bft)
23.01.2023 22:00 3,0 C 82 % 1036,9 hPa 0,0 mm 0,0 km/h (0 Bft) N 0,00 h 0,0 mm 0,0 UV-I 0 W/m 0,2 C 0,0 km/h (0 Bft)
23.01.2023 23:00 3,0 C 82 % 1036,7 hPa 0,0 mm 0,0 km/h (0 Bft) N 0,00 h 0,0 mm 0,0 UV-I 0 W/m 0,3 C 0,0 km/h (0 Bft)
24.01.2023 00:00 3,1 C 81 % 1036,6 hPa 0,0 mm 0,0 km/h (0 Bft) N 0,00 h 0,0 mm 0,0 UV-I 0 W/m 0,2 C 0,0 km/h (0 Bft)
24.01.2023 01:00 3,1 C 81 % 1036,7 hPa 0,0 mm 0,0 km/h (0 Bft) N 0,00 h 0,0 mm 0,0 UV-I 0 W/m 0,2 C 0,0 km/h (0 Bft)
24.01.2023 02:00 3,1 C 82 % 1036,7 hPa 0,0 mm 0,0 km/h (0 Bft) N 0,00 h 0,0 mm 0,0 UV-I 0 W/m 0,2 C 0,0 km/h (0 Bft)
24.01.2023 03:00 2,9 C 82 % 1036,8 hPa 0,0 mm 0,0 km/h (0 Bft) N 0,00 h 0,0 mm 0,0 UV-I 0 W/m 0,1 C 0,0 km/h (0 Bft)
24.01.2023 04:00 2,7 C 82 % 1036,7 hPa 0,0 mm 0,0 km/h (0 Bft) N 0,00 h 0,0 mm 0,0 UV-I 0 W/m -0,1 C 0,0 km/h (0 Bft)
24.01.2023 05:00 2,5 C 83 % 1036,6 hPa 0,0 mm 0,0 km/h (0 Bft) N 0,00 h 0,0 mm 0,0 UV-I 0 W/m -0,1 C 0,0 km/h (0 Bft)
24.01.2023 06:00 2,3 C 82 % 1036,7 hPa 0,0 mm 0,0 km/h (0 Bft) N 0,00 h 0,0 mm 0,0 UV-I 0 W/m -0,4 C 0,0 km/h (0 Bft)
24.01.2023 07:00 2,2 C 82 % 1037,2 hPa 0,0 mm 0,0 km/h (0 Bft) N 0,00 h 0,0 mm 0,0 UV-I 0 W/m -0,5 C 0,0 km/h (0 Bft)
24.01.2023 08:00 2,3 C 82 % 1037,7 hPa 0,0 mm 0,0 km/h (0 Bft) N 0,00 h 0,0 mm 0,0 UV-I 7 W/m -0,5 C 0,0 km/h (0 Bft)
24.01.2023 09:00 2,2 C 82 % 1038,1 hPa 0,0 mm 0,0 km/h (0 Bft) N 0,00 h 0,0 mm 0,0 UV-I 26 W/m -0,6 C 0,0 km/h (0 Bft)
24.01.2023 10:00 2,3 C 82 % 1038,4 hPa 0,0 mm 0,0 km/h (0 Bft) N 0,00 h 0,0 mm 0,0 UV-I 51 W/m -0,5 C 0,0 km/h (0 Bft)
24.01.2023 11:00 2,5 C 81 % 1038,6 hPa 0,0 mm 0,0 km/h (0 Bft) N 0,00 h 0,0 mm 0,1 UV-I 71 W/m -0,4 C 0,0 km/h (0 Bft)
24.01.2023 12:00 2,7 C 81 % 1038,2 hPa 0,0 mm 0,0 km/h (0 Bft) N 0,00 h 0,0 mm 0,0 UV-I 82 W/m -0,3 C 0,0 km/h (0 Bft)
24.01.2023 13:00 2,7 C 80 % 1037,9 hPa 0,0 mm 0,0 km/h (0 Bft) N 0,00 h 0,0 mm 0,0 UV-I 86 W/m -0,4 C 0,0 km/h (0 Bft)
24.01.2023 14:00 2,7 C 80 % 1037,5 hPa 0,0 mm 0,0 km/h (0 Bft) N 0,00 h 0,0 mm 0,0 UV-I 85 W/m -0,4 C 0,0 km/h (0 Bft)
24.01.2023 15:00 2,8 C 80 % 1037,6 hPa 0,0 mm 0,0 km/h (0 Bft) N 0,00 h 0,0 mm 0,0 UV-I 52 W/m -0,3 C 0,0 km/h (0 Bft)
24.01.2023 16:00 2,7 C 80 % 1037,7 hPa 0,0 mm 0,0 km/h (0 Bft) N 0,00 h 0,0 mm 0,0 UV-I 21 W/m -0,4 C 0,0 km/h (0 Bft)
24.01.2023 17:00 2,4 C 80 % 1037,8 hPa 0,0 mm 0,0 km/h (0 Bft) N 0,00 h 0,0 mm 0,0 UV-I 2 W/m -0,6 C 0,0 km/h (0 Bft)
24.01.2023 18:00 2,2 C 81 % 1037,8 hPa 0,0 mm 0,0 km/h (0 Bft) N 0,00 h 0,0 mm 0,0 UV-I 0 W/m -0,7 C 0,0 km/h (0 Bft)
24.01.2023 19:00 2,1 C 82 % 1037,7 hPa 0,0 mm 0,0 km/h (0 Bft) N 0,00 h 0,0 mm 0,0 UV-I 0 W/m -0,7 C 0,0 km/h (0 Bft)
24.01.2023 20:00 2,1 C 81 % 1037,6 hPa 0,0 mm 0,0 km/h (0 Bft) N 0,00 h 0,0 mm 0,0 UV-I 0 W/m -0,7 C 0,0 km/h (0 Bft)
24.01.2023 21:00 2,1 C 81 % 1037,7 hPa 0,0 mm 0,0 km/h (0 Bft) N 0,00 h 0,0 mm 0,0 UV-I 0 W/m -0,8 C 0,0 km/h (0 Bft)
24.01.2023 22:00 2,0 C 82 % 1037,7 hPa 0,0 mm 0,0 km/h (0 Bft) N 0,00 h 0,0 mm 0,0 UV-I 0 W/m -0,8 C 0,0 km/h (0 Bft)
24.01.2023 23:00 1,9 C 83 % 1037,6 hPa 0,0 mm 0,0 km/h (0 Bft) N 0,00 h 0,0 mm 0,0 UV-I 0 W/m -0,7 C 0,0 km/h (0 Bft)
25.01.2023 00:00 1,8 C 84 % 1037,3 hPa 0,0 mm 0,0 km/h (0 Bft) N 0,00 h 0,0 mm 0,0 UV-I 0 W/m -0,7 C 0,0 km/h (0 Bft)
25.01.2023 01:00 1,7 C 85 % 1036,7 hPa 0,0 mm 0,0 km/h (0 Bft) N 0,00 h 0,0 mm 0,0 UV-I 0 W/m -0,6 C 0,0 km/h (0 Bft)
25.01.2023 02:00 1,6 C 85 % 1036,4 hPa 0,0 mm 0,0 km/h (0 Bft) N 0,00 h 0,0 mm 0,0 UV-I 0 W/m -0,6 C 0,0 km/h (0 Bft)
25.01.2023 03:00 1,6 C 86 % 1036,2 hPa 0,0 mm 0,0 km/h (0 Bft) N 0,00 h 0,0 mm 0,0 UV-I 0 W/m -0,5 C 0,0 km/h (0 Bft)
25.01.2023 04:00 1,3 C 87 % 1036,0 hPa 0,0 mm 0,0 km/h (0 Bft) N 0,00 h 0,0 mm 0,0 UV-I 0 W/m -0,6 C 0,0 km/h (0 Bft)
25.01.2023 05:00 1,3 C 88 % 1035,5 hPa 0,0 mm 0,0 km/h (0 Bft) N 0,00 h 0,0 mm 0,0 UV-I 0 W/m -0,5 C 0,0 km/h (0 Bft)
25.01.2023 06:00 1,3 C 89 % 1035,1 hPa 0,0 mm 0,0 km/h (0 Bft) N 0,00 h 0,0 mm 0,0 UV-I 0 W/m -0,3 C 0,0 km/h (0 Bft)
25.01.2023 07:00 1,2 C 89 % 1034,9 hPa 0,0 mm 0,0 km/h (0 Bft) N 0,00 h 0,0 mm 0,0 UV-I 0 W/m -0,4 C 0,0 km/h (0 Bft)
25.01.2023 08:00 1,0 C 90 % 1034,8 hPa 0,0 mm 0,0 km/h (0 Bft) N 0,00 h 0,0 mm 0,0 UV-I 0 W/m -0,5 C 0,0 km/h (0 Bft)
25.01.2023 09:00 0,9 C 90 % 1034,6 hPa 0,0 mm 0,0 km/h (0 Bft) N 0,00 h 0,0 mm 0,0 UV-I 10 W/m -0,5 C 0,0 km/h (0 Bft)
25.01.2023 10:00 0,9 C 91 % 1034,4 hPa 0,0 mm 0,0 km/h (0 Bft) N 0,00 h 0,0 mm 0,0 UV-I 19 W/m -0,4 C 0,0 km/h (0 Bft)
25.01.2023 11:00 0,9 C 91 % 1033,9 hPa 0,0 mm 0,0 km/h (0 Bft) N 0,00 h 0,0 mm 0,0 UV-I 31 W/m -0,5 C 0,0 km/h (0 Bft)
25.01.2023 12:00 0,9 C 91 % 1033,1 hPa 0,0 mm 0,0 km/h (0 Bft) N 0,00 h 0,0 mm 0,0 UV-I 36 W/m -0,4 C 0,0 km/h (0 Bft)
25.01.2023 13:00 1,0 C 91 % 1031,9 hPa 0,0 mm 0,0 km/h (0 Bft) N 0,00 h 0,0 mm 0,0 UV-I 34 W/m -0,3 C 0,0 km/h (0 Bft)
25.01.2023 14:00 1,1 C 91 % 1030,5 hPa 0,0 mm 0,0 km/h (0 Bft) N 0,00 h 0,0 mm 0,0 UV-I 29 W/m -0,3 C 0,0 km/h (0 Bft)
25.01.2023 15:00 0,9 C 91 % 1030,0 hPa 0,0 mm 0,0 km/h (0 Bft) N 0,00 h 0,0 mm 0,0 UV-I 19 W/m -0,4 C 0,0 km/h (0 Bft)
25.01.2023 16:00 0,8 C 91 % 1029,5 hPa 0,0 mm 0,0 km/h (0 Bft) N 0,00 h 0,0 mm 0,0 UV-I 8 W/m -0,5 C 0,0 km/h (0 Bft)
25.01.2023 17:00 0,6 C 91 % 1029,1 hPa 0,0 mm 0,0 km/h (0 Bft) N 0,00 h 0,0 mm 0,0 UV-I 0 W/m -0,7 C 0,0 km/h (0 Bft)
25.01.2023 18:00 0,4 C 92 % 1028,8 hPa 0,0 mm 0,0 km/h (0 Bft) N 0,00 h 0,0 mm 0,0 UV-I 0 W/m -0,8 C 0,0 km/h (0 Bft)
25.01.2023 19:00 0,1 C 93 % 1028,6 hPa 0,0 mm 0,2 km/h (0 Bft) W-SW 0,00 h 0,0 mm 0,0 UV-I 0 W/m -1,0 C 3,0 km/h (1 Bft)
25.01.2023 20:00 -0,5 C 93 % 1027,8 hPa 0,0 mm 0,3 km/h (0 Bft) W-NW 0,00 h 0,0 mm 0,0 UV-I 0 W/m -1,5 C 3,0 km/h (1 Bft)
25.01.2023 21:00 -0,7 C 93 % 1026,9 hPa 0,0 mm 0,0 km/h (0 Bft) N 0,00 h 0,0 mm 0,0 UV-I 0 W/m -1,7 C 0,0 km/h (0 Bft)
25.01.2023 22:00 -0,8 C 93 % 1026,4 hPa 0,0 mm 0,0 km/h (0 Bft) N 0,00 h 0,0 mm 0,0 UV-I 0 W/m -1,8 C 0,0 km/h (0 Bft)
25.01.2023 23:00 -0,8 C 93 % 1026,4 hPa 0,0 mm 0,0 km/h (0 Bft) N 0,00 h 0,0 mm 0,0 UV-I 0 W/m -1,8 C 0,0 km/h (0 Bft)
26.01.2023 00:00 -0,9 C 93 % 1026,3 hPa 0,0 mm 0,0 km/h (0 Bft) N 0,00 h 0,0 mm 0,0 UV-I 0 W/m -1,9 C 0,0 km/h (0 Bft)
26.01.2023 01:00 -1,2 C 93 % 1025,6 hPa 0,0 mm 0,0 km/h (0 Bft) N 0,00 h 0,0 mm 0,0 UV-I 0 W/m -2,2 C 0,0 km/h (0 Bft)
26.01.2023 02:00 -1,3 C 93 % 1025,0 hPa 0,0 mm 0,0 km/h (0 Bft) N 0,00 h 0,0 mm 0,0 UV-I 0 W/m -2,3 C 0,0 km/h (0 Bft)
26.01.2023 03:00 -1,3 C 93 % 1024,5 hPa 0,0 mm 0,0 km/h (0 Bft) N 0,00 h 0,0 mm 0,0 UV-I 0 W/m -2,2 C 0,0 km/h (0 Bft)
26.01.2023 04:00 -1,3 C 93 % 1024,2 hPa 0,0 mm 0,0 km/h (0 Bft) N 0,00 h 0,0 mm 0,0 UV-I 0 W/m -2,2 C 0,0 km/h (0 Bft)
26.01.2023 05:00 -1,2 C 93 % 1024,0 hPa 0,0 mm 0,0 km/h (0 Bft) N 0,00 h 0,0 mm 0,0 UV-I 0 W/m -2,2 C 0,0 km/h (0 Bft)
26.01.2023 06:00 -1,2 C 93 % 1024,0 hPa 0,0 mm 0,0 km/h (0 Bft) N 0,00 h 0,0 mm 0,0 UV-I 0 W/m -2,2 C 0,0 km/h (0 Bft)
26.01.2023 07:00 -1,0 C 93 % 1024,2 hPa 0,0 mm 0,0 km/h (0 Bft) N 0,00 h 0,0 mm 0,0 UV-I 0 W/m -2,0 C 0,0 km/h (0 Bft)
26.01.2023 08:00 -0,8 C 93 % 1024,2 hPa 0,0 mm 0,0 km/h (0 Bft) N 0,00 h 0,0 mm 0,0 UV-I 7 W/m -1,8 C 0,0 km/h (0 Bft)
26.01.2023 09:00 -0,5 C 93 % 1024,3 hPa 0,0 mm 0,0 km/h (0 Bft) N 0,00 h 0,0 mm 0,0 UV-I 31 W/m -1,5 C 0,0 km/h (0 Bft)
26.01.2023 10:00 -0,3 C 93 % 1024,7 hPa 0,0 mm 0,0 km/h (0 Bft) N 0,00 h 0,0 mm 0,0 UV-I 40 W/m -1,2 C 0,0 km/h (0 Bft)
26.01.2023 11:00 0,1 C 93 % 1024,5 hPa 0,3 mm 0,0 km/h (0 Bft) N 0,00 h 0,0 mm 0,0 UV-I 49 W/m -0,9 C 0,0 km/h (0 Bft)
26.01.2023 12:00 0,4 C 93 % 1024,2 hPa 0,0 mm 0,0 km/h (0 Bft) N 0,00 h 0,0 mm 0,0 UV-I 54 W/m -0,6 C 0,0 km/h (0 Bft)
26.01.2023 13:00 0,6 C 93 % 1023,7 hPa 0,0 mm 0,0 km/h (0 Bft) N 0,00 h 0,0 mm 0,0 UV-I 49 W/m -0,4 C 0,0 km/h (0 Bft)
26.01.2023 14:00 0,9 C 93 % 1023,3 hPa 0,0 mm 0,0 km/h (0 Bft) N 0,00 h 0,0 mm 0,0 UV-I 39 W/m -0,0 C 0,0 km/h (0 Bft)
26.01.2023 15:00 1,4 C 94 % 1023,3 hPa 0,0 mm 0,0 km/h (0 Bft) N 0,00 h 0,0 mm 0,0 UV-I 28 W/m 0,5 C 0,0 km/h (0 Bft)
26.01.2023 16:00 1,6 C 94 % 1023,4 hPa 0,0 mm 0,0 km/h (0 Bft) N 0,00 h 0,0 mm 0,0 UV-I 10 W/m 0,8 C 0,0 km/h (0 Bft)
26.01.2023 17:00 2,0 C 94 % 1023,3 hPa 0,0 mm 0,0 km/h (0 Bft) N 0,00 h 0,0 mm 0,0 UV-I 0 W/m 1,1 C 0,0 km/h (0 Bft)
26.01.2023 18:00 2,4 C 94 % 1023,5 hPa 0,0 mm 0,0 km/h (0 Bft) N 0,00 h 0,0 mm 0,0 UV-I 0 W/m 1,6 C 0,0 km/h (0 Bft)
26.01.2023 19:00 2,9 C 94 % 1023,5 hPa 0,0 mm 0,0 km/h (0 Bft) N 0,00 h 0,0 mm 0,0 UV-I 0 W/m 2,0 C 0,0 km/h (0 Bft)
26.01.2023 20:00 3,1 C 94 % 1023,3 hPa 0,0 mm 0,0 km/h (0 Bft) N 0,00 h 0,0 mm 0,0 UV-I 0 W/m 2,2 C 0,0 km/h (0 Bft)
26.01.2023 21:00 3,4 C 94 % 1023,3 hPa 0,0 mm 0,0 km/h (0 Bft) N 0,00 h 0,0 mm 0,0 UV-I 0 W/m 2,5 C 0,0 km/h (0 Bft)
26.01.2023 22:00 3,6 C 94 % 1023,1 hPa 0,0 mm 0,0 km/h (0 Bft) N 0,00 h 0,0 mm 0,0 UV-I 0 W/m 2,7 C 0,0 km/h (0 Bft)
26.01.2023 23:00 3,7 C 94 % 1022,9 hPa 0,0 mm 0,0 km/h (0 Bft) N 0,00 h 0,0 mm 0,0 UV-I 0 W/m 2,8 C 0,0 km/h (0 Bft)
27.01.2023 00:00 3,4 C 94 % 1022,7 hPa 0,0 mm 0,0 km/h (0 Bft) N 0,00 h 0,0 mm 0,0 UV-I 0 W/m 2,5 C 0,0 km/h (0 Bft)
27.01.2023 01:00 3,7 C 92 % 1022,7 hPa 0,0 mm 0,0 km/h (0 Bft) N 0,00 h 0,0 mm 0,0 UV-I 0 W/m 2,5 C 0,0 km/h (0 Bft)
27.01.2023 02:00 4,0 C 88 % 1023,1 hPa 0,0 mm 0,0 km/h (0 Bft) N 0,00 h 0,0 mm 0,0 UV-I 0 W/m 2,1 C 0,0 km/h (0 Bft)
27.01.2023 03:00 3,8 C 87 % 1023,3 hPa 0,0 mm 0,0 km/h (0 Bft) N 0,00 h 0,0 mm 0,0 UV-I 0 W/m 1,8 C 0,0 km/h (0 Bft)
27.01.2023 04:00 3,5 C 85 % 1023,5 hPa 0,0 mm 0,0 km/h (0 Bft) N 0,00 h 0,0 mm 0,0 UV-I 0 W/m 1,2 C 0,0 km/h (0 Bft)
27.01.2023 05:00 3,2 C 86 % 1023,7 hPa 0,0 mm 0,0 km/h (0 Bft) N 0,00 h 0,0 mm 0,0 UV-I 0 W/m 1,2 C 0,0 km/h (0 Bft)
27.01.2023 06:00 3,0 C 89 % 1024,0 hPa 0,0 mm 0,0 km/h (0 Bft) N 0,00 h 0,0 mm 0,0 UV-I 0 W/m 1,3 C 0,0 km/h (0 Bft)
27.01.2023 07:00 3,2 C 90 % 1024,3 hPa 0,0 mm 0,0 km/h (0 Bft) N 0,00 h 0,0 mm 0,0 UV-I 0 W/m 1,7 C 0,0 km/h (0 Bft)
27.01.2023 08:00 3,5 C 89 % 1024,6 hPa 0,0 mm 0,0 km/h (0 Bft) N 0,00 h 0,0 mm 0,0 UV-I 8 W/m 1,8 C 0,0 km/h (0 Bft)
27.01.2023 09:00 4,1 C 88 % 1024,8 hPa 0,0 mm 0,0 km/h (0 Bft) N 0,00 h 0,0 mm 0,1 UV-I 56 W/m 2,2 C 0,0 km/h (0 Bft)
27.01.2023 10:00 4,6 C 86 % 1025,0 hPa 0,0 mm 0,0 km/h (0 Bft) N 0,25 h 0,0 mm 0,0 UV-I 138 W/m 2,5 C 0,0 km/h (0 Bft)
27.01.2023 11:00 5,1 C 85 % 1025,4 hPa 0,0 mm 0,0 km/h (0 Bft) N 0,00 h 0,1 mm 0,0 UV-I 78 W/m 2,8 C 0,0 km/h (0 Bft)
27.01.2023 12:00 5,3 C 84 % 1025,3 hPa 0,0 mm 0,0 km/h (0 Bft) N 0,00 h 0,0 mm 0,0 UV-I 128 W/m 2,9 C 0,0 km/h (0 Bft)
27.01.2023 13:00 5,8 C 83 % 1024,8 hPa 0,0 mm 0,0 km/h (0 Bft) N 0,25 h 0,1 mm 0,0 UV-I 162 W/m 3,1 C 0,0 km/h (0 Bft)
27.01.2023 14:00 5,6 C 82 % 1024,8 hPa 0,0 mm 0,0 km/h (0 Bft) N 0,00 h 0,1 mm 0,0 UV-I 35 W/m 2,8 C 0,0 km/h (0 Bft)
27.01.2023 15:00 5,3 C 83 % 1025,2 hPa 0,0 mm 0,0 km/h (0 Bft) N 0,00 h 0,0 mm 0,0 UV-I 22 W/m 2,6 C 0,0 km/h (0 Bft)
27.01.2023 16:00 5,2 C 81 % 1025,7 hPa 0,0 mm 0,0 km/h (0 Bft) N 0,00 h 0,0 mm 0,0 UV-I 10 W/m 2,1 C 0,0 km/h (0 Bft)
27.01.2023 17:00 4,9 C 80 % 1026,1 hPa 0,0 mm 0,0 km/h (0 Bft) N 0,00 h 0,0 mm 0,0 UV-I 0 W/m 1,8 C 0,0 km/h (0 Bft)
27.01.2023 18:00 4,6 C 83 % 1026,6 hPa 0,0 mm 0,0 km/h (0 Bft) N 0,00 h 0,0 mm 0,0 UV-I 0 W/m 2,0 C 0,0 km/h (0 Bft)
27.01.2023 19:00 4,3 C 85 % 1026,8 hPa 0,0 mm 0,0 km/h (0 Bft) N 0,00 h 0,0 mm 0,0 UV-I 0 W/m 1,9 C 0,0 km/h (0 Bft)
27.01.2023 20:00 4,2 C 84 % 1027,2 hPa 0,0 mm 0,0 km/h (0 Bft) N 0,00 h 0,0 mm 0,0 UV-I 0 W/m 1,7 C 0,0 km/h (0 Bft)
27.01.2023 21:00 4,0 C 85 % 1027,5 hPa 0,0 mm 0,0 km/h (0 Bft) N 0,00 h 0,0 mm 0,0 UV-I 0 W/m 1,7 C 0,0 km/h (0 Bft)
27.01.2023 22:00 3,8 C 84 % 1027,7 hPa 0,0 mm 0,0 km/h (0 Bft) N 0,00 h 0,0 mm 0,0 UV-I 0 W/m 1,4 C 0,0 km/h (0 Bft)
27.01.2023 23:00 3,6 C 82 % 1027,7 hPa 0,0 mm 0,0 km/h (0 Bft) N 0,00 h 0,0 mm 0,0 UV-I 0 W/m 0,9 C 0,0 km/h (0 Bft)
28.01.2023 00:00 3,3 C 82 % 1027,8 hPa 0,0 mm 0,0 km/h (0 Bft) N 0,00 h 0,0 mm 0,0 UV-I 0 W/m 0,5 C 0,0 km/h (0 Bft)
28.01.2023 01:00 2,5 C 83 % 1027,7 hPa 0,0 mm 0,0 km/h (0 Bft) N 0,00 h 0,0 mm 0,0 UV-I 0 W/m 0,0 C 0,0 km/h (0 Bft)
28.01.2023 02:00 1,7 C 85 % 1027,8 hPa 0,0 mm 0,0 km/h (0 Bft) N 0,00 h 0,0 mm 0,0 UV-I 0 W/m -0,5 C 0,0 km/h (0 Bft)
28.01.2023 03:00 1,8 C 86 % 1028,0 hPa 0,0 mm 0,0 km/h (0 Bft) N 0,00 h 0,0 mm 0,0 UV-I 0 W/m -0,3 C 0,0 km/h (0 Bft)
28.01.2023 04:00 2,0 C 84 % 1028,3 hPa 0,0 mm 0,0 km/h (0 Bft) N 0,00 h 0,0 mm 0,0 UV-I 0 W/m -0,4 C 0,0 km/h (0 Bft)
28.01.2023 05:00 2,0 C 84 % 1028,5 hPa 0,0 mm 0,0 km/h (0 Bft) N 0,00 h 0,0 mm 0,0 UV-I 0 W/m -0,5 C 0,0 km/h (0 Bft)
28.01.2023 06:00 1,8 C 83 % 1028,7 hPa 0,0 mm 0,0 km/h (0 Bft) N 0,00 h 0,0 mm 0,0 UV-I 0 W/m -0,7 C 0,0 km/h (0 Bft)
28.01.2023 07:00 1,7 C 82 % 1029,0 hPa 0,0 mm 0,0 km/h (0 Bft) N 0,00 h 0,0 mm 0,0 UV-I 0 W/m -1,0 C 0,0 km/h (0 Bft)
28.01.2023 08:00 1,5 C 80 % 1029,2 hPa 0,0 mm 0,0 km/h (0 Bft) N 0,00 h 0,0 mm 0,0 UV-I 7 W/m -1,5 C 0,0 km/h (0 Bft)
28.01.2023 09:00 1,5 C 79 % 1029,6 hPa 0,0 mm 0,0 km/h (0 Bft) N 0,00 h 0,0 mm 0,0 UV-I 27 W/m -1,8 C 0,0 km/h (0 Bft)
28.01.2023 10:00 1,4 C 77 % 1030,3 hPa 0,0 mm 0,0 km/h (0 Bft) N 0,00 h 0,0 mm 0,0 UV-I 55 W/m -2,2 C 0,0 km/h (0 Bft)
28.01.2023 11:00 1,4 C 74 % 1030,5 hPa 0,0 mm 0,0 km/h (0 Bft) N 0,00 h 0,0 mm 0,0 UV-I 83 W/m -2,7 C 0,0 km/h (0 Bft)
28.01.2023 12:00 1,5 C 73 % 1030,5 hPa 0,0 mm 0,0 km/h (0 Bft) N 0,00 h 0,0 mm 0,0 UV-I 83 W/m -2,9 C 0,0 km/h (0 Bft)
28.01.2023 13:00 1,5 C 72 % 1030,4 hPa 0,0 mm 0,0 km/h (0 Bft) N 0,00 h 0,0 mm 0,0 UV-I 93 W/m -3,0 C 0,0 km/h (0 Bft)
28.01.2023 14:00 2,1 C 71 % 1029,6 hPa 0,0 mm 0,0 km/h (0 Bft) N 0,58 h 0,0 mm 0,0 UV-I 233 W/m -2,6 C 0,0 km/h (0 Bft)
28.01.2023 15:00 2,0 C 70 % 1029,8 hPa 0,0 mm 0,0 km/h (0 Bft) N 0,92 h 0,1 mm 0,0 UV-I 204 W/m -2,9 C 0,0 km/h (0 Bft)
28.01.2023 16:00 1,6 C 72 % 1029,6 hPa 0,0 mm 0,0 km/h (0 Bft) N 1,00 h 0,1 mm 0,0 UV-I 94 W/m -2,9 C 0,0 km/h (0 Bft)
28.01.2023 17:00 0,5 C 78 % 1030,2 hPa 0,0 mm 0,0 km/h (0 Bft) N 0,08 h 0,0 mm 0,0 UV-I 9 W/m -3,0 C 0,0 km/h (0 Bft)
28.01.2023 18:00 -0,3 C 81 % 1030,7 hPa 0,0 mm 0,0 km/h (0 Bft) N 0,00 h 0,0 mm 0,0 UV-I 0 W/m -3,2 C 0,0 km/h (0 Bft)
28.01.2023 19:00 -0,9 C 84 % 1031,1 hPa 0,0 mm 0,0 km/h (0 Bft) N 0,00 h 0,0 mm 0,0 UV-I 0 W/m -3,3 C 0,0 km/h (0 Bft)
28.01.2023 20:00 -1,3 C 86 % 1031,5 hPa 0,0 mm 0,0 km/h (0 Bft) N 0,00 h 0,0 mm 0,0 UV-I 0 W/m -3,3 C 0,0 km/h (0 Bft)
28.01.2023 21:00 -1,5 C 87 % 1031,6 hPa 0,0 mm 0,0 km/h (0 Bft) N 0,00 h 0,0 mm 0,0 UV-I 0 W/m -3,5 C 0,0 km/h (0 Bft)
28.01.2023 22:00 -2,0 C 87 % 1031,2 hPa 0,0 mm 0,0 km/h (0 Bft) N 0,00 h 0,0 mm 0,0 UV-I 0 W/m -3,8 C 0,0 km/h (0 Bft)
28.01.2023 23:00 -2,2 C 88 % 1031,0 hPa 0,0 mm 0,0 km/h (0 Bft) N 0,00 h 0,0 mm 0,0 UV-I 0 W/m -3,9 C 0,0 km/h (0 Bft)
29.01.2023 00:00 -2,6 C 89 % 1031,2 hPa 0,0 mm 0,0 km/h (0 Bft) N 0,00 h 0,0 mm 0,0 UV-I 0 W/m -4,2 C 0,0 km/h (0 Bft)
29.01.2023 01:00 -2,6 C 89 % 1030,7 hPa 0,0 mm 0,0 km/h (0 Bft) N 0,00 h 0,0 mm 0,0 UV-I 0 W/m -4,1 C 0,0 km/h (0 Bft)
29.01.2023 02:00 -2,8 C 89 % 1030,5 hPa 0,0 mm 0,0 km/h (0 Bft) N 0,00 h 0,0 mm 0,0 UV-I 0 W/m -4,4 C 0,0 km/h (0 Bft)
29.01.2023 03:00 -3,2 C 89 % 1030,3 hPa 0,0 mm 0,0 km/h (0 Bft) N 0,00 h 0,0 mm 0,0 UV-I 0 W/m -4,7 C 0,0 km/h (0 Bft)
29.01.2023 04:00 -3,5 C 90 % 1030,6 hPa 0,0 mm 0,0 km/h (0 Bft) N 0,00 h 0,0 mm 0,0 UV-I 0 W/m -4,9 C 0,0 km/h (0 Bft)
29.01.2023 05:00 -3,5 C 90 % 1030,2 hPa 0,0 mm 0,0 km/h (0 Bft) N 0,00 h 0,0 mm 0,0 UV-I 0 W/m -4,9 C 0,0 km/h (0 Bft)
29.01.2023 06:00 -3,4 C 91 % 1029,8 hPa 0,0 mm 0,0 km/h (0 Bft) N 0,00 h 0,0 mm 0,0 UV-I 0 W/m -4,8 C 0,0 km/h (0 Bft)
29.01.2023 07:00 -3,4 C 90 % 1030,0 hPa 0,0 mm 0,0 km/h (0 Bft) N 0,00 h 0,0 mm 0,0 UV-I 0 W/m -4,8 C 0,0 km/h (0 Bft)
29.01.2023 08:00 -3,3 C 91 % 1030,3 hPa 0,0 mm 0,0 km/h (0 Bft) N 0,17 h 0,0 mm 0,0 UV-I 19 W/m -4,6 C 0,0 km/h (0 Bft)
29.01.2023 09:00 -2,4 C 90 % 1030,1 hPa 0,0 mm 0,0 km/h (0 Bft) N 0,00 h 0,0 mm 0,0 UV-I 39 W/m -3,8 C 0,0 km/h (0 Bft)
29.01.2023 10:00 -1,7 C 89 % 1029,9 hPa 0,0 mm 0,0 km/h (0 Bft) N 0,00 h 0,0 mm 0,0 UV-I 88 W/m -3,2 C 0,0 km/h (0 Bft)
29.01.2023 11:00 -0,7 C 87 % 1029,4 hPa 0,0 mm 4,2 km/h (1 Bft) SW 0,00 h 0,0 mm 0,0 UV-I 141 W/m -2,6 C 10,9 km/h (2 Bft)
29.01.2023 12:00 0,2 C 85 % 1028,7 hPa 0,0 mm 3,4 km/h (1 Bft) SW 0,00 h 0,1 mm 0,0 UV-I 123 W/m -2,1 C 13,1 km/h (3 Bft)
29.01.2023 13:00 0,9 C 84 % 1027,5 hPa 0,0 mm 0,6 km/h (0 Bft) SW 0,00 h 0,0 mm 0,0 UV-I 109 W/m -1,5 C 5,5 km/h (1 Bft)
29.01.2023 14:00 2,0 C 82 % 1026,1 hPa 0,0 mm 2,0 km/h (1 Bft) SW 0,00 h 0,0 mm 0,0 UV-I 95 W/m -0,8 C 10,7 km/h (2 Bft)
29.01.2023 15:00 2,5 C 80 % 1025,9 hPa 0,0 mm 1,0 km/h (0 Bft) SW 0,00 h 0,0 mm 0,0 UV-I 35 W/m -0,6 C 7,6 km/h (2 Bft)
29.01.2023 16:00 2,4 C 81 % 1025,9 hPa 0,0 mm 0,1 km/h (0 Bft) N 0,00 h 0,0 mm 0,0 UV-I 8 W/m -0,6 C 2,4 km/h (1 Bft)
29.01.2023 17:00 2,3 C 81 % 1025,6 hPa 0,0 mm 2,1 km/h (1 Bft) W-SW 0,00 h 0,0 mm 0,0 UV-I 0 W/m -0,6 C 9,1 km/h (2 Bft)
29.01.2023 18:00 2,3 C 80 % 1025,0 hPa 0,0 mm 1,4 km/h (1 Bft) W-SW 0,00 h 0,0 mm 0,0 UV-I 0 W/m -0,7 C 9,6 km/h (2 Bft)
29.01.2023 19:00 2,3 C 80 % 1024,5 hPa 0,0 mm 2,1 km/h (1 Bft) W-SW 0,00 h 0,0 mm 0,0 UV-I 0 W/m -0,8 C 10,5 km/h (2 Bft)
29.01.2023 20:00 2,2 C 81 % 1023,7 hPa 0,0 mm 1,7 km/h (1 Bft) SW 0,00 h 0,0 mm 0,0 UV-I 0 W/m -0,6 C 8,7 km/h (2 Bft)
29.01.2023 21:00 2,3 C 85 % 1022,9 hPa 0,0 mm 1,2 km/h (1 Bft) SW 0,00 h 0,0 mm 0,0 UV-I 0 W/m 0,1 C 8,5 km/h (2 Bft)
29.01.2023 22:00 2,3 C 87 % 1022,3 hPa 0,0 mm 0,3 km/h (0 Bft) N 0,00 h 0,0 mm 0,0 UV-I 0 W/m 0,3 C 3,1 km/h (1 Bft)
29.01.2023 23:00 2,9 C 88 % 1022,1 hPa 0,0 mm 3,7 km/h (1 Bft) W 0,00 h 0,0 mm 0,0 UV-I 0 W/m 1,1 C 13,1 km/h (3 Bft)
Min-Datum _ 29.01.23 28.01.23 29.01.23 - 23.01.23 - - - - - 29.01.23 23.01.23
_ Min-Zeit 04:15 14:45 23:55 - 00:00 - - - - - 04:15 00:00
Minimum _ -3,6 C 68 % 1021,9 hPa - 0,0 km/h (0 Bft) - - - - - -5,1 C 0,0 km/h (0 Bft)
Max-Datum _ 27.01.23 26.01.23 24.01.23 26.01.23 29.01.23 - 27.01.23 28.01.23 23.01.23 28.01.23 27.01.23 29.01.23
_ Max-Zeit 13:15 14:20 11:00 11:45 23:45 - 10:30 15:00 11:50 14:55 13:15 23:45
Maximum _ 5,9 C 94 % 1038,7 hPa 0,3 mm 9,0 km/h
W (2 Bft)
- 0,08 h 0,1 mm 0,1 UV-I 376 W/m 3,2 C 24,4 km/h
SW (4 Bft)
Durchschnitt _ 1,6 C 86 % 1030,2 hPa #0,3 mm 0,1 km/h (0 Bft) SW #3:15 h #1,015 mm 0,1 UV-I 56 W/m -0,5 C 0,7 km/h (0 Bft)



© 1998 - 2023 www.pulheimwetter.de